This is the latest recevied weather packets stored in our database for station/object KJ4AJP. If no packets are shown the sender has not sent any weather packets the latest 10 day(s).
| Time | Temp. | Humidity | Pressure | Rain* | Wind** | Luminosity | Snow |
|---|---|---|---|---|---|---|---|
| 1777668157 | 20° C | 29% | 1015.5 hPa | 0 mm | - | 532 W/m² | - |
| 1777667853 | 20° C | 29% | 1015.8 hPa | 0 mm | - | 446 W/m² | - |
| 1777667551 | 20° C | 31% | 1015.6 hPa | 0 mm | - | 436 W/m² | - |
| 1777667247 | 19.44° C | 32% | 1015.8 hPa | 0 mm | - | 464 W/m² | - |
| 1777666944 | 19.44° C | 32% | 1016 hPa | 0 mm | - | 663 W/m² | - |
| 1777666641 | 20° C | 31% | 1016 hPa | 0 mm | - | 559 W/m² | - |
| 1777666338 | 20° C | 32% | 1016.1 hPa | 0 mm | - | 549 W/m² | - |
| 1777666035 | 20° C | 30% | 1016.3 hPa | 0 mm | - | 534 W/m² | - |
| 1777665732 | 19.44° C | 34% | 1016.5 hPa | 0 mm | - | 681 W/m² | - |
| 1777665429 | 19.44° C | 32% | 1016.4 hPa | 0 mm | - | 687 W/m² | - |
| 1777665125 | 19.44° C | 32% | 1016.7 hPa | 0 mm | - | 642 W/m² | - |
| 1777664821 | 18.89° C | 35% | 1016.6 hPa | 0 mm | - | 370 W/m² | - |
| 1777664516 | 18.89° C | 30% | 1016.6 hPa | 0 mm | - | 599 W/m² | - |
| 1777664214 | 19.44° C | 33% | 1016.8 hPa | 0 mm | - | 556 W/m² | - |
| 1777663912 | 19.44° C | 33% | 1017 hPa | 0 mm | - | 479 W/m² | - |
| 1777663610 | 19.44° C | 30% | 1016.9 hPa | 0 mm | - | 480 W/m² | - |
| 1777663307 | 20° C | 33% | 1017 hPa | 0 mm | - | 418 W/m² | - |
| 1777663004 | 20° C | 31% | 1017.1 hPa | 0 mm | - | 537 W/m² | - |
| 1777662701 | 19.44° C | 33% | 1017.3 hPa | 0 mm | - | 562 W/m² | - |
| 1777662397 | 20° C | 32% | 1017.5 hPa | 0 mm | - | 582 W/m² | - |
| 1777662092 | 19.44° C | 35% | 1017.3 hPa | 0 mm | - | 569 W/m² | - |
| 1777661789 | 20° C | 31% | 1017.4 hPa | 0 mm | - | 652 W/m² | - |
| 1777661484 | 19.44° C | 32% | 1017.3 hPa | 0 mm | - | 743 W/m² | - |
| 1777661181 | 19.44° C | 34% | 1017.3 hPa | 0 mm | - | 453 W/m² | - |
| 1777660875 | 19.44° C | 35% | 1017.3 hPa | 0 mm | - | 779 W/m² | - |
* Rain latest hour (hover to see other rain measurements)
** Current wind speed in m/s (hover to see current wind gust speed)